Wind_Speed
29 30 31 32 33 33 34 35 36 37 37 38 39 40 42 42 43 44 44 46 48 49 50 50 51 51 52 53 53 54 55 57 58 58 58 57 57 57 56 56 56 56 55
30 31 31 33 33 33 34 34 35 36 37 38 39 41 41 41 41 42 43 45 46 47 48 49 49 50 51 52 52 53 54 55 57 57 58 58 57 57 56 56 56 56 56
31 32 32 33 33 34 34 34 35 36 37 38 39 40 40 41 41 42 43 43 44 46 47 48 50 50 51 52 53 53 54 55 55 56 57 58 58 57 57 57 57 57 56
32 33 33 33 33 34 34 35 35 37 38 39 39 39 40 41 42 42 43 45 44 45 48 49 50 51 52 52 52 52 53 54 54 55 57 58 58 58 57 56 56 57 57
33 34 34 34 34 34 34 35 36 37 38 39 40 40 41 41 42 43 44 45 45 46 47 49 49 50 51 51 52 52 52 52 53 54 56 57 58 58 57 56 56 57 57
33 34 34 34 34 35 35 36 37 37 38 39 40 41 41 42 43 44 44 45 46 46 47 47 49 49 50 51 51 51 52 52 53 53 54 54 55 56 57 56 56 56 56
33 34 34 34 35 35 36 37 37 38 39 40 41 41 42 42 43 44 45 45 46 46 46 47 48 49 50 50 51 51 52 52 52 52 53 54 55 55 56 56 55 54 54
34 34 34 35 35 36 36 37 38 38 39 41 41 42 42 43 44 45 45 45 45 46 46 47 48 49 49 50 50 51 51 51 51 52 53 53 54 55 54 55 55 53 52
33 34 34 35 36 37 37 37 38 38 39 41 42 43 43 43 44 45 45 45 46 47 47 47 47 48 50 50 50 50 50 51 51 51 51 52 53 54 53 52 52 53 51
33 33 34 34 35 36 38 38 38 39 40 42 43 43 44 44 45 45 45 46 47 48 48 47 47 48 49 49 49 50 50 51 50 50 50 50 50 50 50 50 50 50 49
32 33 34 35 35 36 37 38 38 40 41 42 43 44 44 45 45 45 46 47 47 47 47 46 47 48 48 49 49 49 50 50 50 50 49 49 49 49 48 48 47 46 46
32 33 34 35 35 36 37 38 39 40 41 41 42 44 44 44 44 45 45 46 47 47 47 47 47 47 47 48 48 49 49 49 50 49 49 48 48 47 47 47 46 45 44
33 34 34 35 36 37 38 39 40 40 41 42 43 43 43 43 44 44 45 47 47 46 47 47 47 47 47 47 48 49 49 49 49 49 48 47 47 46 46 45 44 43 42
34 35 35 36 37 38 39 39 40 40 41 42 42 41 42 43 43 43 44 45 45 45 46 46 46 46 46 47 48 49 48 48 47 47 46 46 45 45 45 44 43 42 41
35 36 36 37 38 39 39 39 40 41 42 41 40 40 40 42 42 43 44 44 44 44 45 45 45 46 47 48 48 48 47 46 44 44 44 44 44 43 43 42 41 40 40
36 37 37 38 38 39 39 39 40 41 41 40 39 39 39 40 40 41 43 43 43 42 43 44 45 45 46 46 47 47 45 43 42 41 40 40 40 39 39 40 39 39 38
37 38 38 38 38 38 38 38 39 40 39 38 38 38 38 38 39 40 41 41 41 41 42 42 43 43 44 45 44 43 42 40 39 37 36 35 35 36 36 37 37 36 35
38 38 38 38 38 38 38 38 39 39 39 38 37 38 38 38 39 39 40 40 40 40 41 41 42 42 42 42 41 40 38 36 34 32 32 32 32 32 32 33 33 33 33
38 38 38 38 38 39 39 38 38 38 38 38 38 38 38 38 38 39 40 39 40 40 40 40 40 39 38 38 38 37 35 32 30 29 28 29 29 29 29 29 30 30 31
38 38 37 37 38 38 38 38 38 38 38 37 37 38 38 38 38 38 39 38 38 37 37 37 37 37 37 37 35 34 32 30 28 27 27 27 27 28 28 28 29 29 28
37 37 38 38 37 38 38 38 38 38 38 37 37 37 37 37 36 37 37 37 37 36 35 35 36 36 36 34 32 31 30 29 27 26 24 25 26 25 25 25 26 26 25
37 37 38 37 37 37 37 37 38 38 37 36 36 35 35 35 36 36 36 36 36 34 34 34 34 34 32 31 30 29 28 27 25 22 21 21 20 20 20 20 21 22 23
37 37 37 36 36 36 37 37 37 37 35 34 34 34 33 34 34 35 34 34 34 34 33 33 33 31 30 29 28 26 26 24 22 21 19 18 17 16 17 17 18 19 20
35 35 35 35 35 36 36 36 35 35 34 34 34 33 32 32 33 33 33 33 33 33 33 33 32 29 27 27 26 25 24 23 21 19 17 16 15 14 15 16 17 18 19
33 33 33 34 34 35 36 36 35 35 34 33 33 32 32 31 32 32 32 33 33 32 31 31 30 28 26 25 25 24 22 21 19 17 15 13 13 13 14 16 17 18 18
33 33 34 34 35 35 36 36 35 35 33 32 31 31 31 30 30 31 31 32 32 31 31 30 28 26 25 23 22 21 19 17 16 16 14 12 11 12 13 14 15 17 17
Wind_Direction
273 276 277 278 279 279 278 276 274 275 276 277 278 279 280 281 281 280 278 276 275 274 274 275 275 274 273 272 272 272 272 272 272 271 269 268 268 268 268 267 266 265 266
275 277 279 279 280 279 279 278 277 276 278 279 281 282 282 282 283 283 282 280 277 275 275 276 277 277 275 274 273 273 273 273 272 271 270 269 268 268 268 267 266 265 265
276 278 280 280 279 279 279 278 278 278 279 281 283 284 283 282 283 284 283 283 280 277 277 277 278 278 277 275 275 275 275 274 273 271 271 271 269 268 268 267 266 265 264
276 278 280 280 279 279 279 280 280 280 282 283 284 285 284 284 284 285 284 284 284 282 280 279 278 278 278 277 276 276 276 276 274 272 272 272 272 271 269 267 266 265 265
277 278 280 279 278 280 281 282 281 282 283 284 285 286 286 285 285 285 285 285 285 284 283 281 280 279 279 278 277 276 276 276 275 274 273 273 273 272 272 269 267 265 264
277 278 279 279 279 281 282 283 283 283 284 285 286 286 286 285 285 286 287 287 286 285 285 284 282 281 280 280 279 277 277 276 276 276 275 274 273 273 272 269 267 265 263
279 279 280 280 281 282 283 283 283 284 285 285 286 286 286 286 286 286 287 288 287 285 285 286 285 283 282 281 280 279 278 277 276 276 276 275 275 275 273 270 269 266 263
279 280 280 281 282 283 284 284 285 285 285 286 286 286 286 287 287 287 288 288 287 286 287 288 287 286 284 281 280 279 278 277 277 278 277 277 276 275 274 272 270 267 263
279 280 281 282 283 283 284 285 286 286 287 287 286 286 286 287 288 288 288 289 288 288 288 288 288 287 286 284 282 281 279 278 278 279 278 278 276 274 273 272 271 268 265
280 280 281 283 284 284 284 285 286 287 288 287 286 286 287 287 288 289 289 289 290 289 288 288 289 289 288 286 284 283 281 279 279 279 278 278 276 274 272 271 270 268 266
280 281 282 283 284 285 285 286 288 289 289 288 287 287 287 288 289 289 289 290 291 290 290 290 291 292 291 288 286 285 283 280 279 279 278 278 277 275 273 271 270 268 267
282 282 283 284 286 287 287 287 289 290 290 289 289 289 288 288 289 290 291 292 292 291 291 291 292 292 293 291 288 287 285 283 281 279 278 276 276 274 272 270 269 267 267
282 282 283 285 287 288 288 289 291 292 292 291 291 290 288 289 290 291 292 293 294 293 291 292 294 293 293 294 292 290 287 285 283 280 278 275 274 273 271 268 267 266 267
281 283 285 287 288 289 290 292 293 293 293 292 291 290 290 291 292 292 293 295 296 295 294 293 293 294 295 296 295 293 290 287 284 281 277 275 274 272 268 266 264 264 264
283 284 286 287 289 290 292 292 292 293 295 294 293 292 291 292 293 294 295 296 296 296 297 296 295 295 297 297 297 296 292 288 286 282 279 276 273 269 266 264 263 263 262
283 285 286 287 289 291 292 292 293 294 295 294 293 293 293 294 295 295 296 297 297 298 299 298 298 298 298 298 299 298 293 291 288 285 280 275 271 267 265 263 261 260 261
284 285 285 286 289 291 292 292 293 294 295 294 294 295 295 295 296 297 298 298 298 299 300 299 299 299 300 301 301 299 297 294 290 285 279 273 268 266 265 262 259 258 258
284 285 285 286 289 290 291 292 292 293 294 294 294 295 295 296 297 298 299 298 298 299 300 301 301 302 303 303 301 301 300 296 291 284 277 272 268 267 265 260 256 255 254
284 285 286 287 288 290 291 291 292 294 294 294 293 295 295 295 297 298 298 298 299 300 301 302 303 304 304 303 303 303 300 297 291 284 277 272 269 267 264 257 253 252 252
283 285 287 288 288 290 291 291 292 293 294 294 294 295 295 296 297 298 299 299 300 302 303 304 304 304 304 303 305 303 301 298 291 284 278 273 269 267 262 256 253 252 251
282 284 286 287 288 290 291 292 293 293 294 294 294 294 295 296 298 300 300 300 301 303 303 305 305 305 304 304 305 304 301 298 293 286 279 272 268 265 258 255 251 250 246
281 283 285 286 287 289 291 292 293 294 295 294 294 294 295 296 298 300 301 302 303 304 304 306 307 306 303 303 303 302 300 298 295 288 279 272 265 260 256 253 249 245 242
281 282 284 285 286 288 290 292 294 294 294 293 294 294 296 297 299 301 302 304 304 305 304 305 307 305 303 303 302 302 302 298 295 288 280 274 264 260 255 251 247 243 239
281 282 283 283 284 286 289 291 293 294 294 294 294 295 297 298 300 302 304 305 306 306 305 305 306 306 304 302 301 300 299 296 292 289 284 276 265 257 247 243 242 241 238
278 280 282 284 286 287 288 289 290 292 293 293 294 295 297 298 300 301 304 305 306 307 306 305 305 304 303 302 301 298 295 291 287 284 286 279 268 256 245 244 240 239 241
277 280 283 285 287 288 288 289 289 290 291 291 291 293 295 297 300 302 303 304 306 307 306 304 305 303 303 302 300 296 291 290 289 288 284 281 267 255 248 245 241 239 236
Height
5720 5719 5718 5716 5715 5714 5712 5711 5710 5710 5710 5709 5708 5706 5704 5701 5699 5696 5695 5693 5693 5692 5693 5692 5692 5692 5692 5691 5691 5692 5692 5692 5691 5691 5692 5693 5694 5695 5696 5697 5699 5701 5703
5712 5711 5710 5708 5707 5705 5704 5702 5701 5701 5700 5699 5697 5695 5693 5690 5688 5686 5684 5681 5680 5679 5679 5679 5678 5677 5677 5677 5677 5676 5676 5676 5675 5674 5675 5677 5680 5681 5681 5682 5683 5685 5686
5705 5703 5702 5700 5698 5697 5695 5694 5693 5692 5691 5689 5687 5685 5682 5680 5678 5676 5674 5671 5668 5667 5666 5666 5665 5664 5664 5664 5663 5662 5661 5661 5660 5658 5658 5660 5663 5665 5667 5667 5668 5669 5671
5697 5695 5693 5692 5690 5688 5687 5685 5684 5682 5681 5679 5677 5674 5672 5670 5668 5665 5663 5660 5657 5655 5654 5653 5652 5651 5650 5649 5648 5647 5646 5645 5644 5644 5643 5644 5644 5646 5650 5652 5652 5654 5655
5688 5687 5685 5683 5681 5680 5678 5676 5675 5673 5671 5669 5667 5664 5661 5659 5657 5654 5652 5649 5646 5644 5642 5640 5639 5638 5636 5635 5634 5633 5632 5631 5630 5629 5629 5629 5628 5629 5630 5634 5637 5637 5639
5680 5678 5676 5674 5673 5671 5669 5667 5665 5664 5661 5659 5656 5654 5651 5648 5646 5644 5641 5638 5635 5632 5630 5628 5626 5624 5623 5622 5620 5619 5618 5616 5615 5614 5613 5613 5613 5613 5612 5615 5618 5620 5623
5671 5669 5667 5666 5664 5662 5660 5658 5656 5654 5651 5649 5646 5643 5641 5637 5635 5632 5630 5627 5624 5621 5619 5616 5613 5611 5610 5608 5606 5605 5604 5602 5601 5600 5599 5598 5597 5597 5596 5597 5600 5603 5606
5662 5660 5658 5656 5654 5653 5651 5648 5646 5643 5641 5638 5636 5633 5630 5627 5624 5621 5618 5615 5613 5610 5607 5604 5601 5598 5596 5594 5592 5591 5589 5588 5587 5586 5584 5583 5583 5581 5581 5581 5583 5585 5589
5653 5651 5649 5647 5645 5643 5641 5638 5635 5633 5630 5627 5625 5622 5619 5616 5613 5610 5607 5604 5601 5598 5595 5591 5588 5586 5583 5580 5578 5576 5575 5574 5572 5571 5569 5568 5567 5566 5567 5566 5567 5569 5571
5644 5642 5640 5638 5635 5633 5630 5627 5625 5622 5619 5616 5613 5611 5608 5605 5602 5598 5595 5592 5588 5585 5582 5579 5576 5573 5570 5567 5564 5562 5560 5559 5557 5556 5555 5554 5552 5552 5551 5552 5553 5553 5555
5635 5633 5631 5629 5626 5623 5620 5617 5615 5612 5609 5605 5602 5599 5596 5593 5590 5586 5583 5580 5576 5573 5569 5566 5563 5560 5556 5553 5550 5548 5546 5544 5543 5541 5540 5539 5538 5537 5537 5537 5538 5539 5540
5626 5624 5622 5619 5616 5613 5610 5607 5605 5602 5598 5595 5591 5588 5585 5581 5578 5575 5571 5568 5564 5560 5557 5553 5550 5547 5543 5540 5537 5534 5531 5529 5528 5527 5525 5525 5523 5523 5523 5524 5525 5526 5528
5617 5615 5613 5610 5607 5604 5601 5597 5595 5591 5588 5584 5580 5576 5573 5570 5567 5563 5560 5556 5552 5548 5545 5541 5537 5534 5530 5527 5523 5519 5517 5515 5513 5511 5510 5510 5509 5509 5509 5510 5512 5514 5515
5608 5606 5604 5601 5598 5594 5591 5588 5584 5581 5577 5573 5569 5565 5562 5559 5556 5552 5549 5545 5541 5537 5533 5529 5525 5521 5518 5514 5510 5506 5503 5500 5498 5496 5495 5495 5495 5495 5496 5497 5500 5501 5503
5599 5596 5594 5591 5588 5585 5581 5578 5574 5570 5566 5562 5558 5555 5552 5548 5545 5542 5538 5534 5530 5526 5522 5517 5514 5510 5505 5501 5497 5492 5489 5486 5484 5482 5481 5481 5481 5481 5482 5484 5487 5489 5492
5590 5587 5584 5581 5578 5575 5572 5568 5564 5560 5556 5552 5548 5545 5542 5539 5536 5532 5528 5524 5520 5516 5511 5507 5503 5498 5494 5489 5484 5479 5475 5473 5470 5469 5468 5468 5468 5469 5470 5472 5474 5478 5481
5580 5578 5575 5572 5569 5565 5562 5558 5554 5551 5547 5543 5539 5536 5533 5530 5526 5523 5519 5515 5511 5507 5502 5498 5493 5488 5483 5478 5473 5467 5463 5461 5459 5457 5456 5456 5457 5458 5459 5461 5464 5467 5470
5571 5568 5565 5563 5559 5556 5552 5549 5545 5542 5538 5534 5531 5528 5524 5521 5517 5514 5510 5506 5502 5498 5493 5489 5484 5479 5473 5467 5462 5458 5454 5451 5449 5447 5446 5446 5448 5448 5449 5451 5455 5458 5462
5561 5558 5556 5553 5550 5547 5543 5540 5536 5533 5529 5525 5522 5519 5516 5512 5509 5505 5501 5497 5493 5489 5485 5480 5475 5470 5465 5459 5454 5449 5446 5443 5441 5439 5439 5439 5439 5440 5441 5443 5446 5450 5454
5551 5549 5546 5544 5541 5538 5534 5531 5528 5524 5520 5517 5513 5510 5507 5503 5500 5496 5493 5489 5485 5481 5476 5472 5467 5462 5457 5452 5446 5442 5438 5436 5434 5433 5432 5432 5431 5432 5433 5435 5439 5443 5446
5542 5539 5537 5534 5531 5528 5525 5522 5519 5515 5512 5508 5505 5501 5498 5495 5491 5488 5484 5480 5476 5473 5469 5465 5460 5455 5449 5444 5440 5436 5432 5429 5427 5426 5425 5425 5425 5426 5427 5429 5432 5436 5439
5532 5530 5527 5525 5522 5519 5516 5513 5510 5507 5503 5500 5497 5493 5490 5486 5483 5480 5476 5472 5468 5465 5461 5458 5454 5448 5443 5438 5434 5431 5427 5423 5421 5420 5420 5419 5419 5420 5422 5424 5427 5430 5433
5522 5520 5518 5516 5513 5510 5507 5504 5501 5498 5495 5492 5489 5486 5482 5479 5475 5472 5468 5465 5461 5457 5454 5450 5446 5442 5438 5433 5430 5426 5422 5419 5416 5415 5415 5414 5415 5416 5418 5420 5422 5425 5428
5512 5510 5508 5506 5504 5502 5499 5495 5492 5489 5486 5484 5481 5478 5475 5472 5468 5464 5461 5457 5453 5450 5446 5442 5439 5435 5432 5429 5425 5422 5418 5415 5413 5412 5411 5411 5412 5413 5415 5417 5419 5422 5425
5502 5501 5499 5497 5495 5492 5490 5487 5484 5481 5478 5476 5473 5470 5467 5464 5461 5458 5454 5450 5447 5442 5439 5435 5432 5429 5426 5423 5419 5416 5414 5412 5410 5409 5409 5409 5409 5410 5412 5414 5416 5418 5420
5493 5492 5490 5488 5486 5483 5481 5478 5475 5473 5470 5468 5465 5463 5460 5457 5455 5452 5449 5444 5440 5436 5432 5428 5425 5422 5420 5417 5414 5412 5410 5408 5407 5406 5406 5406 5406 5407 5409 5411 5412 5415 5417